Date,TemperatureHighF,TemperatureAvgF,TemperatureLowF,DewpointHighF,DewpointAvgF,DewpointLowF,HumidityHigh,HumidityAvg,HumidityLow,PressureMaxIn,PressureMinIn,WindSpeedMaxMPH,WindSpeedAvgMPH,GustSpeedMaxMPH,PrecipitationSumIn
2013-1-1,41.7,38.3,34.0,41.2,36.5,27.8,98,94,74,30.21,29.97,9,1,10,0.32
2013-1-2,40.9,34.8,32.7,40.4,32.3,29.8,98,91,82,30.20,29.99,5,0,6,0.08
2013-1-3,39.9,31.6,21.1,31.2,26.9,18.4,97,84,42,30.35,30.18,7,1,7,0.00
2013-1-4,35.8,26.5,16.1,26.2,21.7,14.7,96,83,63,30.46,30.34,12,1,12,0.00
2013-1-5,44.9,30.9,15.8,32.3,24.1,14.1,96,78,47,30.52,30.29,5,0,5,0.01
2013-1-6,37.8,35.7,33.4,34.8,33.1,30.0,96,90,79,30.33,30.14,10,2,11,0.00
2013-1-7,35.8,29.9,22.7,30.4,25.4,20.6,93,83,75,30.48,30.29,8,1,8,0.00
2013-1-8,54.5,32.7,18.8,34.0,24.1,17.3,96,75,30,30.50,30.38,5,0,5,0.01
2013-1-9,48.8,39.4,27.6,47.4,37.4,25.3,98,92,79,30.54,30.41,7,0,7,0.06
2013-1-10,61.2,50.0,38.9,51.8,45.5,38.4,99,86,57,30.54,30.30,12,1,13,0.00
2013-1-11,60.6,52.9,44.3,57.8,49.4,39.6,98,88,61,30.30,30.06,13,1,13,0.10
2013-1-12,69.5,56.5,45.6,62.5,54.5,45.1,99,93,78,30.17,30.01,9,1,9,0.04
2013-1-13,70.2,56.7,41.8,58.7,51.4,41.1,99,84,63,30.08,29.95,9,1,9,0.06
2013-1-14,57.6,48.9,39.5,56.1,48.1,38.7,98,97,93,30.25,30.00,6,0,6,1.37
2013-1-15,46.7,43.9,39.6,46.1,43.3,38.8,98,98,97,30.19,29.98,5,0,5,2.13
2013-1-16,54.1,46.9,42.9,53.0,46.1,42.4,99,97,93,30.06,29.93,6,0,6,0.62
2013-1-17,43.7,37.7,32.2,42.9,36.9,31.4,98,97,94,30.09,29.97,5,0,7,0.93
2013-1-19,25.4,23.3,21.5,24.2,22.1,20.3,96,95,95,30.28,30.24,1,0,1,0.12
2013-1-20,46.9,36.1,21.4,36.4,29.7,20.2,97,78,60,30.24,30.13,15,2,15,0.02
2013-1-21,41.6,30.4,19.6,30.9,20.4,9.2,97,70,38,30.16,30.04,19,3,19,0.00
2013-1-22,26.5,21.3,16.2,9.9,2.4,-2.9,59,44,31,30.33,30.12,16,4,16,0.00
2013-1-23,34.9,24.9,14.6,23.9,11.9,2.5,73,58,48,30.42,30.13,14,2,14,0.00
2013-1-24,35.7,25.5,14.2,27.9,13.8,3.1,82,62,35,30.51,30.10,15,2,15,0.00
2013-1-25,31.7,24.6,16.8,30.9,20.0,8.7,97,83,61,30.47,30.16,9,1,10,0.00
2013-1-26,33.1,30.9,26.3,31.0,28.2,23.5,97,89,84,30.43,30.20,10,2,10,0.00
2013-1-27,44.1,31.0,18.3,32.7,26.1,16.8,96,83,62,30.53,30.42,6,0,6,0.22
2013-1-28,61.2,45.0,33.2,46.7,39.0,30.1,92,81,57,30.43,30.23,13,1,13,0.04
2013-1-29,67.8,54.2,40.7,54.7,48.1,39.7,98,82,55,30.24,29.92,10,1,10,0.01
2013-1-30,66.9,58.4,43.9,58.7,53.2,40.6,97,84,70,29.92,29.40,26,3,26,2.32
2013-1-31,44.3,32.8,28.7,41.0,25.2,19.6,93,74,59,30.00,29.43,20,6,20,0.03
2013-2-1,34.6,21.6,14.7,30.1,12.7,1.8,94,69,53,30.43,29.92,20,4,20,0.00
2013-2-2,30.2,22.0,12.2,27.7,18.2,10.1,96,86,50,30.43,30.13,12,1,13,0.00
2013-2-3,32.7,30.0,26.0,30.8,27.6,19.4,96,91,75,30.17,29.96,14,2,14,0.00
2013-2-4,37.2,23.9,6.1,27.8,19.1,3.8,93,83,64,30.22,30.05,5,0,6,0.07
2013-2-5,44.6,36.5,29.4,38.3,32.4,26.8,95,85,74,30.05,29.98,10,1,10,0.13
2013-2-6,50.4,34.2,21.9,35.2,28.1,20.8,97,81,40,30.30,30.04,6,1,6,0.00
2013-2-7,49.7,38.9,27.4,40.6,33.6,25.5,96,82,64,30.30,30.02,9,0,9,0.02
2013-2-8,48.4,38.0,32.7,43.8,34.0,25.8,97,86,60,30.25,29.94,16,2,16,0.08
2013-2-9,49.9,33.3,23.2,26.5,22.7,17.8,91,68,31,30.39,30.25,10,1,10,0.00
2013-2-10,59.7,41.3,23.2,44.1,26.5,13.0,92,63,17,30.39,30.06,15,2,15,0.13
2013-2-11,54.4,50.8,42.7,50.1,45.4,34.3,97,82,66,30.07,29.96,14,3,14,0.06
2013-2-12,50.1,39.3,24.9,36.8,29.4,23.2,94,70,40,30.18,29.93,9,1,9,0.00
2013-2-13,46.9,39.7,34.8,43.8,36.8,31.0,97,89,73,29.94,29.62,13,1,13,0.35
2013-2-14,46.9,35.6,25.1,31.8,28.8,23.5,95,78,50,30.09,29.93,10,2,11,0.00
2013-2-15,52.4,34.3,22.4,38.9,29.9,21.2,96,86,49,30.15,30.00,17,2,17,0.13
2013-2-16,31.7,28.2,22.1,30.7,23.9,12.4,97,84,64,30.09,29.95,11,1,11,0.00
2013-2-17,32.2,23.2,15.8,16.9,11.4,7.6,88,62,37,30.32,30.04,17,3,18,0.00
2013-2-18,54.9,33.9,13.0,32.9,21.5,11.1,93,65,41,30.42,30.09,13,2,13,0.01
2013-2-19,45.7,40.2,31.8,39.4,27.9,15.3,95,64,37,30.08,29.87,17,4,17,0.10
2013-2-20,40.2,30.8,19.5,17.6,15.0,10.8,81,53,31,30.25,30.07,14,3,14,0.00
2013-2-21,50.1,32.2,14.5,34.0,18.6,11.9,93,63,25,30.33,30.15,9,0,9,0.07
2013-2-22,54.4,43.1,36.1,45.9,38.1,33.8,93,83,68,30.23,30.02,16,2,16,0.22
2013-2-23,56.6,43.3,36.1,47.3,39.7,34.1,96,88,63,30.06,29.82,6,0,6,0.03
2013-2-24,51.7,40.3,24.8,44.4,29.3,21.8,95,68,33,30.09,29.86,12,2,12,0.00
2013-2-25,53.8,35.4,21.7,33.8,26.7,19.5,93,73,45,30.15,30.03,9,1,10,0.00
2013-2-26,51.4,39.8,32.9,45.4,35.0,24.7,95,83,65,30.05,29.53,17,1,17,0.12
2013-2-27,42.9,37.9,34.1,37.3,33.5,31.6,95,84,71,29.82,29.65,15,4,16,0.09
2013-2-28,35.2,32.5,30.1,31.7,27.8,24.9,93,83,69,29.97,29.75,15,4,15,0.00
2013-3-1,38.4,32.9,30.1,33.7,29.5,27.8,95,88,74,29.97,29.92,9,2,9,0.03
2013-3-2,35.2,29.9,24.4,29.1,25.1,17.7,92,82,69,30.03,29.91,12,1,12,0.01
2013-3-3,29.3,25.2,22.2,21.4,18.5,15.4,88,75,63,30.12,30.02,11,2,11,0.00
2013-3-4,44.9,32.2,24.2,28.3,19.9,15.6,84,62,35,30.24,30.10,10,2,10,0.00
2013-3-5,46.5,38.6,29.8,44.9,35.5,26.0,98,89,78,30.10,29.61,19,1,19,1.01
2013-3-6,32.6,28.6,25.6,30.2,25.6,23.4,93,89,80,30.25,29.72,14,3,14,0.00
2013-3-7,33.5,30.4,28.2,28.0,25.7,24.1,89,83,75,30.39,30.24,7,1,7,0.01
2013-3-8,44.7,33.6,23.8,32.1,26.0,21.9,94,75,52,30.43,30.33,8,1,8,0.00
2013-3-9,67.3,41.6,20.3,36.6,28.1,18.8,96,66,22,30.40,30.22,8,1,8,0.00
2013-3-10,69.1,51.8,34.4,39.4,34.9,30.8,91,57,28,30.25,30.07,14,2,17,0.00
2013-3-11,57.2,52.3,44.6,49.4,43.8,32.8,95,74,45,30.09,29.76,18,2,20,0.67
2013-3-12,48.4,41.9,33.9,47.5,37.9,30.3,97,86,63,30.05,29.76,11,2,12,0.34
2013-3-13,39.4,31.8,25.4,31.5,25.3,16.3,96,78,56,30.29,30.05,18,2,18,0.00
2013-3-14,42.3,31.5,23.4,21.7,18.1,14.3,78,59,37,30.39,30.24,12,3,12,0.00
2013-3-15,56.7,40.2,25.2,38.6,29.5,19.8,91,67,47,30.28,29.94,15,2,15,0.00
2013-3-16,67.9,53.2,33.4,54.4,45.5,31.0,98,78,50,29.93,29.70,20,3,20,0.18
2013-3-17,57.1,48.2,41.9,53.6,46.8,40.2,98,95,86,30.00,29.87,5,0,6,0.15
2013-3-18,52.9,41.4,34.3,44.4,38.5,32.8,97,90,68,30.01,29.81,15,1,15,0.74
2013-3-19,53.2,43.0,35.1,42.8,27.7,8.0,98,61,20,30.10,29.85,17,3,18,0.11
2013-3-20,48.7,36.1,21.5,30.7,18.2,11.9,91,52,25,30.13,29.85,15,2,18,0.00
2013-3-21,32.3,25.2,16.5,25.6,14.2,10.1,84,63,44,30.08,29.87,11,2,12,0.00
2013-3-22,44.4,27.9,11.2,23.4,15.1,9.3,94,63,31,30.17,30.05,9,1,9,0.00
2013-3-23,52.0,39.4,32.2,37.7,31.3,21.4,92,73,58,30.10,29.89,4,0,4,0.00
2013-3-24,46.2,40.1,32.3,42.5,37.4,29.8,96,90,81,29.92,29.46,13,1,14,0.90
2013-3-25,37.3,32.1,29.2,36.3,28.7,24.9,97,87,75,29.94,29.50,18,5,18,0.09
2013-3-26,34.9,30.8,28.2,29.8,27.7,26.2,93,88,75,30.25,29.94,11,3,11,0.01
2013-3-27,38.6,32.3,29.1,28.6,24.0,20.4,94,72,55,30.34,30.25,10,2,10,0.01
2013-3-28,48.9,34.9,25.5,29.0,24.4,22.4,90,68,40,30.37,30.29,10,1,11,0.00
2013-3-29,52.9,35.6,18.6,35.8,26.1,17.2,96,73,31,30.40,30.26,13,2,15,0.00
2013-3-30,59.2,42.4,24.6,41.1,34.1,23.4,97,76,42,30.32,30.05,9,1,10,0.00
2013-3-31,57.1,48.3,40.5,51.2,45.9,36.9,98,92,76,30.05,29.83,12,2,15,0.33
2013-4-1,54.9,47.2,38.2,47.6,41.5,30.9,98,82,52,30.03,29.87,16,2,16,0.05
2013-4-2,50.6,37.6,25.3,31.4,23.8,15.9,94,62,27,30.22,30.03,12,2,12,0.00
2013-4-3,53.9,37.2,21.4,28.7,22.2,15.6,93,61,24,30.35,30.22,8,1,8,0.00
2013-4-4,42.1,34.9,32.0,33.6,28.6,22.0,97,79,47,30.31,30.02,3,0,4,0.84
2013-4-5,56.4,41.5,32.9,43.9,37.4,31.5,98,87,50,30.12,30.00,10,1,11,0.22
2013-4-6,69.3,44.6,27.1,42.6,32.4,26.1,98,70,32,30.25,30.08,13,1,13,0.00
2013-4-7,68.8,55.8,41.4,46.0,40.3,33.4,82,58,37,30.14,30.01,15,2,15,0.00
2013-4-8,76.7,56.6,37.5,53.2,46.1,35.9,96,72,40,30.13,29.98,10,1,10,0.00
2013-4-9,79.7,60.0,41.2,57.2,49.9,40.1,98,74,40,30.17,30.00,10,1,10,0.00
2013-4-10,82.7,63.5,45.7,59.6,52.7,44.6,97,73,34,30.08,29.86,10,1,10,0.00
2013-4-11,81.3,64.7,47.6,61.0,53.4,46.1,97,71,38,29.89,29.63,12,2,13,0.55
2013-4-12,62.6,57.0,41.5,60.8,51.3,38.1,97,82,54,29.88,29.52,14,3,16,0.87
2013-4-13,66.7,50.3,36.3,44.0,38.5,34.1,96,69,32,30.05,29.88,11,2,12,0.00
2013-4-14,76.0,55.2,33.0,49.8,39.6,31.7,97,62,26,30.10,29.95,12,1,13,0.01
2013-4-15,68.3,57.5,49.2,58.5,51.9,47.1,94,82,62,30.14,29.94,11,1,11,0.08
2013-4-16,79.8,64.2,47.6,60.5,54.0,46.2,97,73,38,30.24,30.08,9,1,10,0.00
2013-4-17,68.2,60.3,54.2,62.9,58.0,53.1,98,92,80,30.23,30.08,11,0,11,1.05
2013-4-18,75.3,65.9,54.1,61.2,55.3,52.4,97,71,48,30.07,29.84,15,2,15,1.05
2013-4-19,71.3,60.3,43.6,61.5,53.4,35.0,95,79,65,29.93,29.58,17,4,17,0.46
2013-4-20,58.2,44.7,33.2,36.6,31.7,26.4,90,63,32,30.32,29.93,13,2,13,0.00
2013-4-21,63.7,46.5,29.0,41.2,33.0,27.4,95,64,33,30.47,30.31,9,1,11,0.00
2013-4-22,66.0,49.0,32.6,46.2,37.5,31.1,96,68,38,30.41,30.18,5,1,5,0.00
2013-4-23,71.8,52.1,31.2,50.1,39.4,28.9,93,66,33,30.26,30.02,9,1,9,0.00
2013-4-24,74.0,55.3,39.2,57.8,48.4,37.8,97,80,47,30.14,29.90,19,2,21,0.22
2013-4-25,60.7,46.6,32.0,43.4,36.6,30.6,97,72,40,30.35,30.14,8,1,8,0.00
2013-4-26,67.2,49.1,29.9,45.8,36.9,28.9,97,69,28,30.46,30.30,7,0,7,0.00
2013-4-27,62.2,54.2,48.9,53.3,48.4,43.8,96,82,60,30.36,30.17,7,0,7,0.13
2013-4-28,58.9,53.4,48.2,54.4,50.0,44.5,95,88,74,30.17,29.92,13,1,14,0.50
2013-4-29,68.3,57.0,48.6,56.3,51.9,47.3,97,84,59,30.02,29.93,8,1,8,0.00
2013-4-30,80.5,61.9,46.8,64.6,54.2,45.8,98,79,43,30.10,29.96,8,1,8,0.00
2013-5-1,72.0,58.6,45.9,59.6,52.1,45.1,98,80,54,30.23,30.10,8,1,8,0.00
2013-5-2,69.3,59.7,54.5,58.2,52.8,50.5,88,79,59,30.25,30.16,14,1,14,0.00
2013-5-3,69.3,58.6,52.8,51.7,47.6,39.3,89,69,37,30.18,30.05,13,1,13,0.00
2013-5-4,59.0,52.4,45.4,48.7,43.0,37.3,83,71,49,30.06,29.97,9,1,9,0.00
2013-5-5,53.6,50.4,48.3,50.6,45.5,37.3,96,84,64,30.03,29.84,8,2,8,0.27
2013-5-6,67.8,54.9,48.8,59.1,52.1,47.4,97,91,67,29.88,29.79,10,1,10,0.40
2013-5-7,59.6,51.5,45.1,53.6,49.3,44.3,98,93,78,29.95,29.86,6,0,6,0.42
2013-5-8,60.2,55.1,51.8,57.6,53.9,50.7,98,95,89,30.03,29.90,8,1,10,0.36
2013-5-9,72.0,59.5,48.4,61.5,55.1,47.9,99,87,59,30.11,30.01,8,1,8,0.00
2013-5-10,76.3,60.1,46.7,63.8,56.0,45.9,99,88,57,30.07,29.90,9,1,9,0.20
2013-5-11,70.5,60.1,55.7,62.2,57.8,51.9,98,93,68,29.93,29.80,9,1,9,0.29
2013-5-12,60.5,51.1,37.3,52.2,40.6,32.3,97,70,38,30.08,29.87,10,1,10,0.00
2013-5-13,60.4,45.7,31.6,39.6,33.3,28.1,98,67,30,30.21,30.08,11,1,11,0.00
2013-5-14,70.3,52.7,31.6,52.7,41.8,30.6,97,70,42,30.27,30.02,10,1,10,0.00
2013-5-15,80.4,68.4,58.0,62.8,56.9,51.6,88,68,49,30.08,29.89,12,2,13,0.00
2013-5-16,75.7,62.7,49.5,60.9,55.3,47.8,97,78,55,30.01,29.92,10,1,10,0.00
2013-5-17,82.5,62.2,50.1,65.8,57.4,48.8,98,86,52,30.08,29.99,5,0,5,0.72
2013-5-18,69.5,63.0,56.1,66.0,61.0,55.3,98,94,78,30.08,29.99,6,0,6,0.10
2013-5-19,81.5,65.7,59.3,70.9,62.9,58.4,98,91,62,30.04,29.92,9,0,9,0.66
2013-5-20,75.0,63.8,57.4,69.1,61.6,56.8,99,93,73,30.10,29.97,6,0,6,0.61
2013-5-21,84.8,68.5,55.1,69.9,62.1,54.5,99,82,46,30.04,29.85,13,1,13,0.36
2013-5-22,81.6,64.4,56.3,69.8,61.6,55.7,99,92,53,29.93,29.83,11,0,11,0.88
2013-5-23,76.2,63.3,58.2,65.1,59.9,56.5,99,90,57,29.91,29.80,8,1,10,0.40
2013-5-24,61.3,54.8,42.9,56.6,46.7,38.5,96,76,47,30.23,29.89,10,1,10,0.03
2013-5-25,66.7,51.6,36.1,46.6,40.1,33.3,98,70,31,30.38,30.22,8,1,8,0.00
2013-5-26,70.8,58.4,49.5,55.3,48.9,43.8,94,73,44,30.27,30.16,7,0,7,0.00
2013-5-27,80.0,63.9,46.4,64.9,54.7,45.3,97,75,48,30.24,30.05,7,0,7,0.00
2013-5-28,81.3,69.1,52.9,65.0,59.4,51.5,97,74,50,30.15,30.02,7,1,7,0.00
2013-5-29,84.3,69.8,53.6,68.2,60.4,52.2,97,75,47,30.17,30.04,6,0,6,0.00
2013-5-30,87.0,70.0,52.2,67.1,59.6,50.8,97,72,45,30.20,30.04,9,1,10,0.00
2013-5-31,88.8,71.3,55.1,69.5,60.9,53.7,97,72,47,30.13,29.98,7,1,9,0.00
2013-6-1,84.3,72.5,59.8,69.7,62.3,58.1,96,72,49,30.04,29.87,9,1,9,0.00
2013-6-2,72.7,66.9,60.9,66.6,63.4,58.8,97,89,66,29.92,29.82,6,0,6,0.39
2013-6-3,75.4,66.7,60.2,66.8,62.5,58.6,98,87,64,29.96,29.83,6,0,6,0.15
2013-6-4,82.2,66.2,52.8,66.5,59.0,52.0,98,80,51,30.03,29.95,5,0,5,0.00
2013-6-5,81.6,67.5,56.0,69.4,61.4,54.9,98,82,59,30.06,29.88,11,1,11,0.00
2013-6-6,76.7,69.0,62.3,70.6,65.4,60.3,96,89,74,29.94,29.70,6,0,8,0.31
2013-6-7,72.5,66.9,60.9,67.7,64.3,59.5,98,92,74,29.81,29.65,5,0,5,0.14
2013-6-8,76.4,66.6,59.3,65.5,61.4,58.4,98,85,61,30.05,29.80,6,1,8,0.05
2013-6-9,85.7,68.5,57.3,70.1,63.2,56.3,98,85,50,30.12,29.96,6,0,7,0.13
2013-6-10,75.7,68.4,63.5,70.3,65.0,62.0,98,90,67,29.98,29.81,10,1,10,0.47
2013-6-11,77.0,67.7,61.0,66.8,63.1,59.6,98,86,65,29.98,29.84,6,1,7,0.30
2013-6-12,85.9,72.8,58.5,75.8,67.5,57.6,98,85,65,30.00,29.83,7,1,8,0.00
2013-6-13,81.5,72.2,60.8,72.4,67.5,56.8,94,86,73,29.84,29.61,12,2,12,0.09
2013-6-14,75.3,63.2,51.7,61.6,56.0,50.8,98,80,51,30.04,29.80,4,0,4,0.00
2013-6-15,79.3,63.8,49.2,63.8,56.5,48.4,98,80,50,30.16,30.01,7,0,7,0.00
2013-6-16,79.7,67.5,55.3,68.0,62.0,54.3,98,84,61,30.10,29.96,9,1,9,0.00
2013-6-17,80.5,70.7,63.0,70.9,66.4,62.1,98,87,66,30.00,29.86,6,0,6,0.06
2013-6-18,68.2,65.8,61.1,66.5,64.4,60.1,98,95,89,29.92,29.79,2,0,2,1.92
2013-6-19,80.3,66.1,58.6,71.1,62.9,57.8,98,90,61,30.08,29.91,3,0,3,0.08
2013-6-20,83.5,68.5,56.6,71.6,62.9,55.8,99,84,54,30.17,30.07,5,0,5,0.00
2013-6-21,87.1,70.3,58.6,73.4,63.4,57.8,98,81,51,30.22,30.08,4,0,4,0.00
2013-6-22,86.3,68.6,55.3,66.8,60.0,52.4,98,77,42,30.20,30.05,3,0,3,0.00
2013-6-23,86.6,70.6,58.0,69.5,63.3,56.9,98,80,49,30.17,30.05,6,0,6,0.00
2013-6-24,83.3,72.0,61.6,72.3,66.4,60.4,97,84,61,30.17,30.02,5,0,6,0.00
2013-6-25,84.0,70.9,62.5,72.7,66.6,61.6,98,87,60,30.10,29.95,7,0,7,0.00
2013-6-26,80.2,70.1,63.9,72.7,67.2,62.8,98,91,73,29.99,29.84,10,1,10,0.31
2013-6-27,75.8,68.2,63.8,71.7,66.5,62.7,98,94,85,29.90,29.71,10,1,10,0.84
2013-6-28,81.5,71.5,65.1,72.2,68.1,62.9,98,89,69,29.75,29.56,8,1,11,0.20
2013-6-29,80.3,70.3,61.5,67.9,63.9,57.2,98,82,51,29.66,29.58,10,1,10,0.00
2013-6-30,85.5,69.2,57.6,68.3,62.1,56.8,98,81,44,29.76,29.65,8,0,8,0.05
2013-7-1,83.3,69.6,63.1,70.7,65.9,62.1,98,89,58,29.89,29.74,6,0,6,0.26
2013-7-2,83.3,70.3,63.5,72.3,66.3,62.6,98,88,61,30.05,29.87,6,0,7,0.18
2013-7-3,72.1,66.4,62.4,71.4,65.6,61.8,98,97,93,30.17,30.04,2,0,3,1.12
2013-7-4,81.8,69.4,61.9,75.1,67.1,61.3,99,93,67,30.18,30.09,8,0,9,0.74
2013-7-5,84.6,72.8,63.9,71.2,66.6,63.3,99,83,57,30.15,30.06,8,1,9,0.01
2013-7-6,85.2,73.1,64.8,70.9,66.6,63.3,97,82,53,30.13,30.01,9,1,11,0.41
2013-7-7,77.3,69.3,66.0,73.3,68.0,65.0,98,96,83,30.11,30.03,7,0,7,0.42
2013-7-8,82.1,71.5,64.6,70.1,66.5,63.1,98,86,58,30.16,30.05,5,0,6,0.00
2013-7-9,85.3,72.4,62.8,72.4,66.6,61.9,98,84,55,30.12,30.00,5,0,5,0.00
2013-7-10,85.5,71.9,66.3,74.9,69.1,65.1,98,91,65,30.04,29.88,7,0,7,0.67
2013-7-11,76.5,70.6,66.4,71.4,68.6,65.8,99,94,83,29.92,29.82,4,0,4,0.13
2013-7-12,82.7,70.3,63.8,73.3,66.1,62.3,99,88,54,29.96,29.85,3,0,3,0.00
2013-7-13,78.0,68.6,58.9,69.9,64.7,58.3,99,88,68,30.08,29.95,3,0,3,0.00
2013-7-14,81.2,72.6,67.9,72.4,68.2,65.4,98,87,64,30.23,30.06,11,0,11,0.06
2013-7-15,89.8,73.8,64.0,74.8,67.6,63.1,98,82,52,30.28,30.17,6,0,8,0.00
2013-7-16,91.8,73.9,59.1,76.3,66.8,58.2,98,81,50,30.31,30.17,3,0,3,0.00
2013-7-17,91.7,73.8,65.6,79.8,70.1,64.7,98,89,60,30.24,30.08,4,0,4,0.58
2013-7-18,89.3,72.9,66.0,79.4,69.7,65.4,98,91,63,30.16,29.99,9,0,9,0.77
2013-7-19,85.3,73.7,66.9,76.6,70.4,66.3,99,90,69,30.06,29.92,6,0,6,0.07
2013-7-20,84.5,73.0,65.7,74.4,69.2,65.0,99,89,66,29.98,29.84,6,0,6,0.00
2013-7-21,82.3,70.5,64.6,77.1,68.3,63.7,98,93,74,29.96,29.87,6,0,6,0.40
2013-7-22,80.5,71.9,66.4,71.8,68.4,65.5,98,89,71,29.93,29.75,9,1,9,0.45
2013-7-23,80.0,72.4,67.4,72.0,68.6,66.8,98,89,67,29.82,29.72,8,1,8,0.09
2013-7-24,80.4,72.7,67.2,72.6,68.2,64.7,98,87,65,29.83,29.73,5,0,5,0.00
2013-7-25,81.7,68.7,59.4,67.2,62.3,58.3,98,82,52,30.02,29.83,4,0,4,0.00
2013-7-26,81.6,67.9,54.1,70.5,62.2,53.3,98,84,58,30.05,29.94,5,0,6,0.03
2013-7-27,76.8,68.8,65.6,70.5,66.3,64.0,98,92,71,29.99,29.83,6,0,6,0.60
2013-7-28,78.2,69.0,60.9,69.9,64.4,59.5,98,87,61,30.00,29.85,4,0,7,0.03
2013-7-29,76.4,63.9,52.4,63.1,57.4,51.6,98,82,51,30.19,30.00,4,0,5,0.00
2013-7-30,80.0,65.1,53.9,69.2,60.3,53.1,98,86,50,30.21,30.11,5,0,5,0.00
2013-7-31,68.3,64.4,61.7,66.8,63.4,60.8,98,96,93,30.15,29.95,2,0,2,1.07
2013-8-1,81.1,70.5,63.3,71.0,66.2,62.1,99,87,61,29.96,29.86,3,0,4,0.18
2013-8-2,80.5,67.8,60.4,67.4,62.4,58.8,98,85,51,30.01,29.92,6,0,6,0.00
2013-8-3,79.9,69.6,60.3,69.7,64.8,59.4,98,86,64,30.00,29.91,6,0,6,0.00
2013-8-4,80.8,70.6,62.4,68.4,64.3,59.2,98,82,52,30.01,29.92,5,0,5,0.36
2013-8-5,80.6,67.9,57.3,69.1,62.1,56.5,98,83,55,30.04,29.92,6,0,6,0.00
2013-8-6,80.3,70.0,60.5,70.6,64.8,59.4,97,85,60,29.98,29.91,6,0,6,0.00
2013-8-7,80.3,70.1,64.5,73.6,68.2,63.6,98,94,75,29.99,29.92,5,0,6,0.24
2013-8-8,79.9,72.1,66.1,74.6,69.7,65.5,99,93,79,29.99,29.92,4,0,4,0.07
2013-8-9,82.3,72.6,66.7,75.3,69.9,66.0,99,92,75,30.05,29.92,9,0,9,0.70
2013-8-10,76.5,69.7,66.9,74.1,68.8,66.1,99,97,88,30.08,30.01,7,0,7,1.51
2013-8-11,79.9,71.5,64.9,73.9,69.1,64.3,99,93,80,30.11,29.99,9,0,10,0.05
2013-8-12,79.8,71.9,64.3,75.0,69.6,63.7,98,93,76,30.04,29.90,5,0,5,1.41
2013-8-13,76.7,68.3,64.4,71.3,67.0,63.7,99,96,81,29.93,29.79,7,0,9,1.22
2013-8-14,74.0,63.2,53.8,64.5,59.1,52.6,99,88,56,30.08,29.88,4,0,4,0.00
2013-8-15,77.7,60.7,50.0,64.6,56.2,49.2,98,86,59,30.12,30.02,6,0,6,0.00
2013-8-16,82.5,63.5,51.3,69.2,58.0,50.6,98,84,50,30.13,30.03,2,0,2,0.00
2013-8-17,77.3,62.5,52.7,68.0,59.2,51.9,98,90,67,30.15,30.08,4,0,4,0.21
2013-8-18,78.0,66.7,60.7,70.7,64.3,59.8,99,93,69,30.17,30.07,5,0,5,0.43
2013-8-19,76.3,68.0,63.5,69.4,65.6,62.9,99,92,76,30.14,30.02,3,0,4,0.07
2013-8-20,87.0,70.1,60.9,74.3,66.2,60.5,99,89,57,30.14,30.03,6,0,6,0.00
2013-8-21,83.3,69.5,63.0,73.6,66.7,62.4,98,91,67,30.18,30.06,3,0,3,0.00
2013-8-22,81.0,70.4,61.3,71.2,66.4,60.7,98,88,68,30.13,29.97,7,1,8,0.00
2013-8-23,79.7,68.2,61.5,73.6,65.6,60.8,99,92,68,30.06,29.95,4,0,4,0.56
2013-8-24,84.3,67.0,56.3,68.4,60.9,55.6,99,83,48,30.27,30.06,0,0,0,0.00
2013-8-25,82.0,63.8,51.5,67.7,58.2,50.9,98,84,51,30.38,30.23,0,0,0,0.00
2013-8-26,80.3,65.1,51.7,68.4,60.5,50.9,98,86,63,30.30,30.10,5,0,5,0.00
2013-8-27,80.0,68.3,58.2,71.6,65.4,57.4,99,91,74,30.13,29.98,6,0,6,0.00
2013-8-28,82.3,72.4,64.8,73.4,68.7,63.8,99,89,70,30.02,29.88,7,1,7,0.00
2013-8-29,86.8,75.0,66.7,74.8,69.9,65.4,98,86,58,29.93,29.85,4,0,4,0.03
2013-8-30,85.7,72.6,63.5,73.0,67.8,62.9,99,86,60,29.98,29.84,6,0,6,0.00
2013-8-31,78.3,68.9,64.7,74.1,67.8,64.1,99,97,85,29.90,29.82,6,0,6,0.91
2013-9-1,74.3,66.8,62.8,71.0,66.0,62.5,99,97,88,29.91,29.79,7,0,7,0.82
2013-9-2,80.5,71.4,64.6,72.3,68.5,64.0,99,91,73,29.89,29.76,7,0,8,0.57
2013-9-3,77.5,68.1,58.3,70.5,64.9,57.5,99,90,64,29.98,29.77,6,0,6,0.01
2013-9-4,79.7,64.6,52.8,65.0,58.1,52.3,99,82,45,30.09,29.98,4,0,4,0.00
2013-9-6,82.5,68.7,52.3,67.8,61.8,51.8,99,81,54,30.17,30.03,3,0,3,0.00
2013-9-7,79.5,65.5,53.3,67.8,60.7,52.8,99,86,59,30.09,29.95,7,0,7,0.00
2013-9-8,83.0,67.6,57.5,70.6,63.7,56.9,99,89,59,29.99,29.91,5,0,5,0.00
2013-9-9,86.3,69.5,58.2,74.0,65.2,57.6,99,88,57,30.10,29.99,5,0,5,0.00
2013-9-10,87.0,71.3,60.8,72.0,66.0,60.1,99,85,53,30.20,30.07,5,0,5,0.00
2013-9-11,85.0,70.9,63.9,74.1,68.4,63.0,99,92,62,30.18,30.04,6,0,6,0.23
2013-9-12,66.1,65.7,64.8,65.7,65.2,64.2,99,98,98,30.04,30.01,1,0,1,0.00
2013-9-13,72.5,63.8,50.5,62.8,55.4,49.3,99,76,50,29.95,29.81,8,1,8,0.00
2013-9-14,73.7,55.7,42.8,57.4,49.2,42.3,99,82,44,30.11,29.95,3,0,3,0.00
2013-9-15,75.5,59.8,46.9,62.9,54.7,46.2,99,85,54,30.20,30.07,4,0,4,0.00
2013-9-16,72.9,61.0,52.4,65.3,58.1,51.8,99,91,72,30.20,30.10,4,0,4,0.00
2013-9-17,74.0,58.1,48.7,61.6,53.8,48.1,99,87,58,30.27,30.19,7,0,7,0.00
2013-9-18,73.2,59.0,49.4,62.6,56.1,48.8,99,91,67,30.24,30.14,4,0,4,0.00
2013-9-19,69.0,63.2,60.9,66.9,62.4,60.3,99,97,92,30.15,30.05,3,0,3,0.58
2013-9-20,77.8,66.6,59.2,69.5,63.7,58.9,99,91,69,30.07,29.86,5,0,6,0.00
2013-9-21,66.3,62.1,57.7,65.0,61.5,57.1,99,98,94,29.87,29.70,6,0,6,0.94
2013-9-22,70.5,59.3,47.7,60.5,54.3,47.4,99,85,61,29.94,29.83,4,0,4,0.00
2013-9-23,73.0,56.9,44.6,62.4,52.7,44.1,99,87,55,30.04,29.94,6,0,6,0.00
2013-9-24,75.6,58.5,46.6,63.6,54.2,46.1,99,87,57,30.08,29.88,4,0,4,0.00
2013-9-25,65.7,58.6,51.8,63.7,57.7,51.3,99,97,88,29.91,29.82,2,0,2,0.08
2013-9-26,78.8,62.1,52.0,63.9,56.3,51.1,99,84,45,30.03,29.88,3,0,3,0.00
2013-9-27,77.8,59.1,46.3,62.2,54.0,45.8,99,85,48,30.15,30.03,3,0,3,0.00
2013-9-28,76.0,57.5,46.0,61.1,52.8,45.5,99,86,55,30.23,30.10,4,0,4,0.00
2013-9-29,72.5,57.3,46.2,60.7,53.7,45.3,98,89,61,30.16,30.01,4,0,4,0.00
2013-9-30,72.4,60.5,51.8,62.1,56.8,51.3,98,89,58,30.07,29.96,6,0,6,0.00
2013-10-1,73.5,59.3,48.8,62.8,55.4,48.3,99,88,62,30.15,30.04,4,0,4,0.00
2013-10-2,77.8,59.9,48.3,65.4,56.1,47.8,99,89,58,30.19,30.05,5,0,5,0.00
2013-10-3,77.0,61.8,52.4,67.2,58.3,51.8,99,89,64,30.14,30.04,4,0,4,0.00
2013-10-4,79.7,62.9,52.1,66.4,58.5,51.6,99,87,58,30.17,30.05,6,0,6,0.00
2013-10-5,83.0,64.6,51.0,68.6,59.6,50.5,99,86,56,30.15,29.97,4,0,4,0.00
2013-10-6,81.8,66.4,52.9,67.1,59.1,52.3,99,80,49,30.00,29.79,9,1,9,0.00
2013-10-7,71.6,59.2,44.3,63.0,55.7,43.4,98,89,64,30.08,29.73,9,1,10,0.74
2013-10-8,67.9,51.4,39.1,55.2,46.4,38.6,99,85,54,30.22,30.07,4,0,4,0.00
2013-10-9,71.5,51.5,37.6,52.9,44.1,37.1,99,80,42,30.27,30.13,3,0,3,0.00
2013-10-10,64.5,50.1,36.1,55.7,46.6,35.3,98,89,64,30.18,30.07,4,0,4,0.00
2013-10-11,74.3,58.5,44.2,57.3,51.0,43.7,99,79,44,30.09,29.95,9,0,10,0.00
2013-10-12,68.0,61.2,56.0,61.6,58.4,55.1,98,91,77,30.09,29.97,4,0,4,0.00
2013-10-13,73.7,61.5,54.1,64.7,59.3,53.3,99,93,72,30.21,30.09,2,0,2,0.00
2013-10-14,72.5,59.7,49.9,64.1,56.6,49.3,99,90,70,30.24,30.11,0,0,0,0.00
2013-10-15,72.0,57.4,46.4,59.8,53.2,45.8,99,87,60,30.17,30.01,0,0,0,0.00
2013-10-16,67.7,57.3,47.4,59.0,53.9,46.6,98,89,70,30.04,29.94,6,0,6,0.00
2013-10-17,64.7,58.6,51.6,63.5,57.6,49.1,98,96,91,29.96,29.80,8,0,8,0.20
2013-10-18,61.9,50.8,39.6,50.4,46.2,38.8,99,86,60,30.07,29.95,6,0,6,0.00
2013-10-19,59.9,51.7,45.3,53.1,48.3,43.4,99,89,70,29.99,29.86,9,1,10,0.00
2013-10-20,62.7,44.5,31.4,43.5,36.0,28.1,99,77,28,30.12,29.99,5,0,6,0.00
2013-10-21,65.8,46.4,32.1,49.1,40.1,31.5,99,82,44,30.18,30.00,12,0,12,0.00
2013-10-22,60.5,50.3,41.3,50.8,46.3,40.4,98,87,67,30.03,29.83,8,1,8,0.00
2013-10-23,50.4,44.7,35.5,49.0,40.4,31.5,97,85,65,30.07,29.74,14,2,15,0.03
2013-10-24,46.9,38.1,30.2,37.3,33.7,29.2,97,85,61,30.24,30.06,11,1,11,0.00
2013-10-25,41.1,34.9,26.0,36.1,29.9,24.4,94,83,61,30.45,30.24,6,1,7,0.00
2013-10-26,52.6,36.9,19.9,34.9,26.6,18.9,97,71,38,30.41,30.14,12,1,12,0.00
2013-10-27,62.7,48.7,33.2,45.3,38.7,30.9,94,70,47,30.17,30.03,9,1,9,0.00
2013-10-28,60.1,52.3,42.7,55.6,50.4,40.8,97,93,83,30.27,30.14,4,0,4,0.02
2013-10-29,67.0,56.9,51.6,55.8,52.5,49.9,98,86,61,30.33,30.21,6,0,6,0.00
2013-10-30,68.2,57.7,51.3,59.5,54.8,49.9,99,90,70,30.26,30.14,8,0,8,0.25
2013-10-31,68.0,60.1,50.0,59.2,53.4,49.3,99,80,59,30.14,29.64,20,2,20,0.00
2013-11-1,69.2,61.0,44.3,60.2,52.9,42.5,96,77,45,29.74,29.59,18,2,18,0.13
2013-11-2,58.0,47.1,38.0,48.0,41.5,35.0,98,82,54,30.05,29.72,12,1,12,0.11
2013-11-3,52.2,40.4,30.0,40.0,35.1,28.7,98,83,52,30.42,30.05,5,0,5,0.00
2013-11-4,57.8,41.0,26.4,39.0,31.7,25.4,97,73,40,30.54,30.41,13,0,13,0.00
2013-11-5,62.2,45.8,35.5,42.9,34.9,23.1,94,69,24,30.54,30.39,8,0,8,0.00
2013-11-6,70.2,54.3,37.6,54.6,46.5,35.9,99,78,51,30.41,30.07,12,2,12,0.00
2013-11-7,58.7,47.4,34.4,54.1,42.6,29.8,98,84,64,30.22,29.98,11,1,11,0.19
2013-11-8,49.1,35.1,24.7,32.7,27.1,22.3,95,75,38,30.40,30.22,9,1,9,0.00
2013-11-9,53.8,37.5,22.1,36.3,26.7,20.8,96,69,36,30.40,30.26,12,1,12,0.00
2013-11-10,60.6,43.6,27.5,40.5,31.4,23.9,91,66,28,30.34,30.17,9,2,14,0.00
2013-11-11,63.8,38.5,20.9,34.8,26.0,18.8,95,69,19,30.38,30.18,7,0,7,0.00
2013-11-12,46.2,33.2,24.0,39.7,27.8,17.8,93,81,66,30.57,30.14,6,0,6,0.00
2013-11-13,39.3,26.2,15.8,21.8,18.6,13.7,94,75,46,30.67,30.55,7,1,8,0.00
2013-11-14,53.4,29.7,14.1,28.1,18.4,12.7,95,71,21,30.58,30.37,10,1,10,0.00
2013-11-15,55.8,37.1,19.7,44.9,31.1,17.3,98,82,37,30.40,30.25,6,0,6,0.17
2013-11-16,66.9,48.9,37.9,55.3,45.8,37.3,99,90,59,30.27,30.12,4,0,4,0.00
2013-11-17,70.0,55.3,41.4,59.0,51.1,40.6,99,87,58,30.17,29.81,12,2,15,0.09
2013-11-18,60.2,53.2,42.1,58.7,42.2,27.7,98,69,36,30.08,29.80,12,2,12,0.10
2013-11-19,49.1,38.4,27.1,30.4,27.4,23.7,89,66,41,30.30,30.08,9,1,9,0.00
2013-11-20,52.9,39.6,26.3,33.5,27.9,24.0,93,66,33,30.43,30.28,9,1,9,0.00
2013-11-21,65.8,46.8,28.4,50.8,40.1,25.8,93,79,55,30.49,30.32,12,1,12,0.00
2013-11-22,59.7,52.9,46.6,54.7,50.9,45.0,98,93,80,30.34,30.13,7,1,7,0.10
2013-11-23,52.1,42.1,28.4,50.7,35.5,17.1,95,78,51,30.32,30.14,13,2,14,0.00
2013-11-24,31.1,22.8,14.9,18.4,11.4,3.8,89,63,33,30.59,30.32,9,1,9,0.00
2013-11-25,39.9,28.0,14.8,28.1,16.8,11.2,92,65,35,30.59,30.32,3,0,3,0.00
2013-11-26,42.1,37.0,30.0,41.5,36.2,27.7,98,97,91,30.31,29.73,3,0,4,2.34
2013-11-27,37.7,27.8,21.5,36.8,24.3,13.4,97,87,70,30.31,29.74,13,2,13,0.07
2013-11-28,37.1,23.7,13.6,25.3,18.0,11.7,95,80,57,30.57,30.31,10,1,10,0.00
2013-11-29,46.7,26.9,14.3,29.5,21.3,12.9,96,82,47,30.69,30.56,5,0,5,0.05
2013-11-30,47.7,30.4,19.7,32.8,24.7,18.1,95,81,52,30.64,30.39,4,0,4,0.00
2013-12-1,51.4,31.8,17.8,35.0,25.8,16.6,96,81,43,30.39,30.09,8,1,8,0.00
2013-12-2,49.0,39.9,29.4,39.6,35.8,27.5,94,86,68,30.09,29.86,5,0,6,0.00
2013-12-3,59.0,44.7,36.1,48.0,40.7,34.1,96,87,66,29.94,29.86,4,0,4,0.00
2013-12-4,66.8,49.5,35.8,53.9,45.2,35.0,98,87,60,30.05,29.91,6,0,6,0.00
2013-12-5,68.7,53.8,39.7,59.9,50.5,38.9,98,90,66,30.07,29.94,10,0,10,0.05
2013-12-6,58.3,52.1,42.2,57.5,51.5,41.7,99,98,93,30.11,29.87,12,0,12,0.87
2013-12-7,42.5,36.1,32.2,42.0,35.1,31.2,98,96,90,30.46,30.09,5,0,5,0.04
2013-12-8,39.9,35.9,33.4,37.7,34.6,31.6,98,95,89,30.42,30.15,5,0,5,0.42
2013-12-9,47.1,40.6,35.4,46.4,40.0,34.9,99,98,96,30.19,30.05,8,1,8,0.21
2013-12-10,40.7,34.4,23.4,40.4,31.6,20.0,99,90,70,30.38,29.98,14,1,14,0.31
2013-12-11,43.6,27.9,15.6,26.6,21.0,14.4,97,78,42,30.52,30.35,9,1,9,0.00
2013-12-12,34.9,25.6,19.4,22.3,18.0,13.1,94,74,42,30.51,30.42,8,1,11,0.00
2013-12-13,44.9,28.3,14.1,27.2,19.7,12.7,95,74,33,30.46,30.29,10,1,10,0.00
2013-12-14,40.7,36.8,32.9,39.4,33.1,25.3,97,87,70,30.31,29.80,10,0,10,0.39
2013-12-15,41.4,34.2,29.8,40.9,31.2,26.1,98,89,82,30.17,29.77,12,3,13,0.11
2013-12-16,44.2,32.4,25.4,33.3,28.3,24.2,97,85,63,30.27,30.14,13,3,13,0.00
2013-12-17,50.4,39.3,24.6,38.6,32.0,23.3,98,76,57,30.20,29.94,19,3,19,0.07
2013-12-18,39.9,30.1,21.0,25.1,22.0,19.0,93,73,48,30.35,30.17,12,2,13,0.00
2013-12-19,52.7,33.0,18.8,33.0,24.9,17.3,95,76,36,30.40,30.22,5,0,5,0.00
2013-12-20,59.4,39.9,27.1,40.8,33.5,25.8,96,80,45,30.25,30.12,2,0,2,0.00
2013-12-21,71.0,56.6,37.3,59.7,50.0,35.0,94,80,62,30.13,29.83,14,2,17,0.00
2013-12-22,68.9,57.6,49.8,59.9,54.3,49.3,99,90,71,30.02,29.81,14,1,17,1.27
2013-12-23,52.6,43.2,31.9,52.2,41.9,28.8,99,95,88,30.28,29.95,8,1,8,0.43
2013-12-24,31.8,26.7,14.9,28.9,21.7,13.2,93,81,62,30.51,30.28,9,1,12,0.00
2013-12-25,41.1,23.9,13.2,22.2,16.1,10.9,95,76,34,30.55,30.38,8,0,8,0.00
2013-12-26,42.4,28.0,17.6,28.9,22.4,15.7,95,81,53,30.46,30.36,12,1,12,0.00
2013-12-27,47.2,27.4,16.0,26.8,19.7,14.6,95,77,30,30.55,30.44,8,0,8,0.00
2013-12-28,45.4,30.3,16.7,36.8,26.0,15.3,97,86,48,30.50,30.16,4,0,4,0.45
2013-12-29,44.4,41.5,37.7,43.7,40.5,36.8,98,96,87,30.16,29.84,19,3,19,0.86
2013-12-30,39.9,36.1,32.9,38.6,34.6,31.4,97,94,89,30.22,30.01,10,2,10,0.02
2013-12-31,38.1,30.9,21.8,31.4,26.5,20.3,95,84,64,30.44,30.20,13,2,13,0.00
2014-1-1,52.4,29.5,17.5,33.4,22.9,16.3,97,81,32,30.42,30.16,5,0,5,0.00
2014-1-2,38.1,30.1,18.0,36.9,28.0,13.4,97,92,76,30.17,29.73,15,1,15,0.17